This demonstration page uses our WeatherBlox Daily Observations layout. Learn more.

Left ArrowRight Arrow

41.12389, -100.76542

Hourly Observations for March 23, 2020

Temp ( °F °C ) Dew Point ( °F °C ) Humidity (%) Winds ( mph kmh ) Pressure ( in mb ) Visibility ( mi km ) Precip ( " mm )
12:53 am 00:53 Clear 39 3.9 34 1.1 82 82 NE 13 20 30.03 1017 10 16 0.00 0.00
1:53 am 01:53 Mostly Clear 37 2.8 33 0.6 86 86 Calm 30.04 1017 10 16 0.00 0.00
1:59 am 01:59 Mostly Cloudy 37 2.8 33 0.6 86 86 NNE 3 6 30.10 1019 10 16 0.00 0.00
2:29 am 02:29 Cloudy 38 3.3 34 1.1 86 86 NNE 7 11 30.10 1019 10 16 0.00 0.00
2:53 am 02:53 Cloudy with Mist and Fog 38 3.3 35 1.7 89 89 NE 7 11 30.04 1017 5 8 0.00 0.00
3:10 am 03:10 Cloudy with Mist and Fog 37 2.8 35 1.7 93 93 ENE 6 9 30.10 1019 2 3 0.00 0.00
3:30 am 03:30 Cloudy with Mist and Fog 37 2.8 35 1.7 93 93 ENE 5 7 30.10 1019 1 2 0.00 0.00
3:50 am 03:50 Mostly Cloudy with Mist and Fog 37 3 36 2 93 93 NNE 7 11 30.11 1020 1 1 0.00 0.00
3:53 am 03:53 Mostly Cloudy with Fog 37 2.8 35 1.7 93 93 NE 6 9 30.05 1018 1 1 0.00 0.00
4:53 am 04:53 Mostly Cloudy with Mist and Fog 37 2.8 35 1.7 93 93 NNE 3 6 30.04 1017 1 1 0.00 0.00
5:53 am 05:53 Mostly Cloudy with Mist and Fog 36 2.2 34 1.1 93 93 N 7 11 30.04 1017 1 1 0.00 0.00
6:25 am 06:25 Mostly Cloudy with Mist and Fog 36 2.2 34 1.1 93 93 N 5 7 30.13 1020 1 2 0.00 0.00
6:53 am 06:53 Mostly Cloudy with Mist and Fog 36 2.2 34 1.1 93 93 NNE 6 9 30.06 1018 1 1 0.00 0.00
7:06 am 07:06 Cloudy with Mist and Fog 36 2.2 34 1.1 93 93 NNE 6 9 30.13 1020 2 2 0.00 0.00
7:12 am 07:12 Cloudy with Mist and Fog 35 1.7 33 0.6 93 93 NNE 5 7 30.13 1020 3 5 0.00 0.00
7:22 am 07:22 Cloudy with Mist and Fog 35 1.7 33 0.6 93 93 NNE 5 7 30.13 1020 2 3 0.00 0.00
7:50 am 07:50 Cloudy with Mist and Fog 36 2 32 0 87 87 Calm 30.14 1021 1 2 0.00 0.00
7:53 am 07:53 Cloudy with Mist and Fog 35 1.7 33 0.6 93 93 Calm 30.09 1019 1 2 0.00 0.00
8:15 am 08:15 Cloudy with Mist and Fog 35 1.7 33 0.6 93 93 Calm 30.13 1020 1 1 0.00 0.00
8:53 am 08:53 Mostly Cloudy with Mist and Fog 36 2.2 34 1.1 93 93 SSW 5 7 30.09 1019 1 1 0.00 0.00
9:05 am 09:05 Mostly Cloudy with Mist and Fog 36 2.2 34 1.1 93 93 S 6 9 30.16 1021 1 2 0.00 0.00
9:44 am 09:44 Cloudy with Mist and Fog 36 2.2 34 1.1 93 93 SSW 5 7 30.15 1021 2 3 0.00 0.00
9:53 am 09:53 Cloudy with Mist and Fog 36 2.2 35 1.7 97 97 SW 5 7 30.10 1019 6 10 0.00 0.00
10:53 am 10:53 Cloudy 38 3.3 36 2.2 93 93 SSW 5 7 30.11 1020 10 16 0.00 0.00
11:44 am 11:44 Cloudy 41 5 37 2.8 86 86 Calm 30.11 1020 10 16 0.00 0.00
11:53 am 11:53 Cloudy 42 5.6 37 2.8 82 82 Calm 30.08 1019 10 16 0.00 0.00
12:20 pm 12:20 Partly Cloudy 46 7.8 38 3.3 73 73 SE 7 11 30.05 1018 10 16 0.00 0.00
12:53 pm 12:53 Sunny 50 10 38 3.3 63 63 SSE 6 9 30.02 1017 10 16 0.00 0.00
1:53 pm 13:53 Sunny 57 13.9 38 3.3 49 49 S 6 9 29.97 1015 10 16 0.00 0.00
2:53 pm 14:53 Sunny 63 17.2 39 3.9 41 41 SSE 10 17 29.91 1013 10 16 0.00 0.00
3:53 pm 15:53 Sunny 65 18.3 35 1.7 33 33 S 10 17 29.88 1012 10 16 0.00 0.00
4:53 pm 16:53 Sunny 64 17.8 31 -0.6 29 29 SSW 13 20 29.86 1011 10 16 0.00 0.00
5:53 pm 17:53 Sunny 63 17.2 29 -1.7 28 28 SSW 14 22 29.85 1011 10 16 0.00 0.00
6:53 pm 18:53 Mostly Sunny 61 16.1 30 -1.1 31 31 S 7 11 29.85 1011 10 16 0.00 0.00
7:53 pm 19:53 Partly Cloudy 56 13.3 36 2.2 47 47 SSE 13 20 29.86 1011 10 16 0.00 0.00
8:53 pm 20:53 Clear 48 8.9 40 4.4 74 74 SE 10 17 29.89 1012 10 16 0.00 0.00
9:53 pm 21:53 Clear 43 6.1 39 3.9 86 86 SE 12 19 29.90 1013 10 16 0.00 0.00
10:53 pm 22:53 Clear 41 5 38 3.3 89 89 SE 10 17 29.91 1013 10 16 0.00 0.00
11:53 pm 23:53 Clear 39 3.9 36 2.2 89 89 ESE 8 13 29.89 1012 9 14 0.00 0.00

Powered by AerisWeather